User: anonymous   Login
Location: Bonac
(42.8765°N, 0.9753°E)
Time: 11:48:17
(UTC+00:00)
Language:

COSMO-SKYMED 1 - Orbit

View from above orbital plane
View from above orbital plane
View from above satellite
View from above satellite

Ground track
Ground track

The orbit is defined by the following mean orbital elements,

1 31598U          26064.18463071 +.00000000 +00000-0 +39136-3 0 00002
2 31598  97.8861 255.1810 0000847  95.4148 264.7169 14.96491406    08
Epoch (UTC): 05 March 2026 04:25:52
Eccentricity: 0.0000847
inclination: 97.8861°
perigee height: 577 km
apogee height: 578 km
right ascension of ascending node: 255.1810°
argument of perigee: 95.4148°
revolutions per day: 14.96491406
mean anomaly at epoch: 264.7169°

The dashed part of the orbit path shows where the satellite is in the earth's shadow,  

DLR